Location: Balaclava NSW 2575, Australia
(34.4510°S, 150.4953°E)
Time: 08:09:06
(UTC+10:00)

N. Korean satellite - Visible Passes

Search period start: 28 July 2021 00:00
Search period end: 07 August 2021 00:00
Orbit: 451 x 497 km, 97.2° (Epoch: 26 July)

Date Brightness Start Highest point End Pass type
(mag) Time Alt. Az. Time Alt. Az. Time Alt. Az.
28 Jul 9.6 18:14:34 10° SW 18:16:25 14° WSW 18:18:18 10° WNW visible
29 Jul 8.6 17:46:00 10° S 17:49:10 30° WSW 17:52:21 10° NW visible
01 Aug 9.2 17:57:04 10° SSW 17:59:55 22° WSW 18:02:46 10° NW visible
04 Aug 9.5 18:08:17 10° SSW 18:10:37 16° WSW 18:12:58 10° WNW visible
